When you browse on this site, cookies collect data to enhance your experience and personalize the content and advertising you see.
Visit our Privacy Policy to learn more. By continuing to use the site, you agree to this use of cookies and data.
  • Em Portugal
  • Lista de países
  • Para 7 dias
  • Temperatura da água
  • Mapa do tempo
  • Widgets de tempo
  • user-avatar
    Iniciar Sessão

    Previsão horária em Nashavar

    Hoje, 27 Fevereiro, Quinta-feira

    Tempo Temperatura Precipitação Vento Pressão Humidade
    00:00 +20°C° 0 mm 1 m/s 730 mmHg 46%
    01:00 +19°C° 0 mm 1 m/s 730 mmHg 47%
    02:00 +17°C° 0 mm 0 m/s 730 mmHg 48%
    03:00 +16°C° 0 mm 0 m/s 730 mmHg 49%
    04:00 +16°C° 0 mm 0 m/s 730 mmHg 50%
    05:00 +15°C° 0 mm 0 m/s 730 mmHg 50%
    06:00 +16°C° 0 mm 0 m/s 730 mmHg 50%
    07:00 +17°C° 0 mm 0 m/s 731 mmHg 50%
    08:00 +18°C° 0 mm 0 m/s 732 mmHg 50%
    09:00 +19°C° 0 mm 0 m/s 732 mmHg 44%
    10:00 +23°C° 0 mm 1 m/s 732 mmHg 39%
    11:00 +24°C° 0 mm 2 m/s 732 mmHg 34%
    12:00 +25°C° 0 mm 2 m/s 731 mmHg 33%
    13:00 +26°C° 0 mm 2 m/s 731 mmHg 31%
    14:00 +27°C° 0 mm 2 m/s 730 mmHg 30%
    15:00 +27°C° 0 mm 2 m/s 730 mmHg 32%
    16:00 +27°C° 0 mm 1 m/s 729 mmHg 33%
    17:00 +26°C° 0 mm 2 m/s 729 mmHg 34%
    18:00 +25°C° 0.4 mm 1 m/s 729 mmHg 41%
    19:00 +23°C° 0.4 mm 1 m/s 729 mmHg 48%
    20:00 +21°C° 0.4 mm 1 m/s 730 mmHg 56%
    21:00 +21°C° 0.2 mm 1 m/s 730 mmHg 58%
    22:00 +20°C° 0.2 mm 2 m/s 730 mmHg 60%
    23:00 +19°C° 0.2 mm 2 m/s 730 mmHg 62%

    Amanhã, 28 Fevereiro, Sexta-feira

    Tempo Temperatura Precipitação Vento Pressão Humidade
    00:00 +19°C° 0.6 mm 2 m/s 730 mmHg 66%
    01:00 +18°C° 0.6 mm 2 m/s 730 mmHg 71%
    02:00 +18°C° 0.6 mm 3 m/s 729 mmHg 75%
    03:00 +17°C° 1.1 mm 2 m/s 729 mmHg 79%
    04:00 +18°C° 1.1 mm 1 m/s 729 mmHg 83%
    05:00 +16°C° 1.1 mm 1 m/s 729 mmHg 87%
    06:00 +16°C° 0.5 mm 1 m/s 729 mmHg 86%
    07:00 +16°C° 0.5 mm 1 m/s 730 mmHg 84%
    08:00 +18°C° 0.5 mm 1 m/s 730 mmHg 83%
    09:00 +19°C° 0.3 mm 1 m/s 730 mmHg 76%
    10:00 +20°C° 0.3 mm 1 m/s 731 mmHg 69%
    11:00 +20°C° 0.3 mm 2 m/s 731 mmHg 61%
    12:00 +20°C° 0.4 mm 2 m/s 730 mmHg 60%
    13:00 +21°C° 0.4 mm 3 m/s 730 mmHg 58%
    14:00 +21°C° 0.4 mm 3 m/s 730 mmHg 56%
    15:00 +21°C° 0.2 mm 3 m/s 729 mmHg 57%
    16:00 +21°C° 0.2 mm 3 m/s 729 mmHg 58%
    17:00 +21°C° 0.2 mm 3 m/s 728 mmHg 59%
    18:00 +19°C° 0.5 mm 3 m/s 729 mmHg 64%
    19:00 +18°C° 0.5 mm 4 m/s 729 mmHg 68%
    20:00 +17°C° 0.5 mm 4 m/s 729 mmHg 73%
    21:00 +17°C° 0.9 mm 4 m/s 729 mmHg 73%
    22:00 +15°C° 0.9 mm 4 m/s 730 mmHg 74%
    23:00 +15°C° 0.9 mm 4 m/s 730 mmHg 74%

    Depois de amanhã, 29 Fevereiro, Sábado

    Tempo Temperatura Precipitação Vento Pressão Humidade
    00:00 +14°C° 1 mm 4 m/s 730 mmHg 76%
    01:00 +14°C° 1 mm 3 m/s 730 mmHg 78%
    02:00 +14°C° 1 mm 3 m/s 729 mmHg 80%
    03:00 +15°C° 1.4 mm 2 m/s 729 mmHg 82%
    04:00 +15°C° 1.4 mm 2 m/s 729 mmHg 84%
    05:00 +14°C° 1.4 mm 2 m/s 729 mmHg 85%
    06:00 +14°C° 1 mm 2 m/s 729 mmHg 85%
    07:00 +14°C° 1 mm 2 m/s 730 mmHg 85%
    08:00 +14°C° 1 mm 2 m/s 730 mmHg 85%
    09:00 +15°C° 0.6 mm 2 m/s 731 mmHg 83%
    10:00 +15°C° 0.6 mm 2 m/s 731 mmHg 81%
    11:00 +15°C° 0.6 mm 2 m/s 731 mmHg 79%
    12:00 +15°C° 1.9 mm 2 m/s 731 mmHg 83%
    13:00 +15°C° 1.9 mm 2 m/s 731 mmHg 87%
    14:00 +14°C° 1.9 mm 2 m/s 730 mmHg 90%
    15:00 +14°C° 0.8 mm 2 m/s 730 mmHg 89%
    16:00 +14°C° 0.8 mm 2 m/s 730 mmHg 88%
    17:00 +14°C° 0.8 mm 2 m/s 730 mmHg 88%
    18:00 +14°C° 0.1 mm 2 m/s 730 mmHg 86%
    19:00 +14°C° 0.1 mm 2 m/s 731 mmHg 85%
    20:00 +14°C° 0.1 mm 2 m/s 731 mmHg 83%
    21:00 +14°C° 0 mm 2 m/s 731 mmHg 82%
    22:00 +14°C° 0 mm 2 m/s 731 mmHg 80%
    23:00 +14°C° 0 mm 1 m/s 731 mmHg 78%

    1 Março, Domingo

    Tempo Temperatura Precipitação Vento Pressão Humidade
    00:00 +14°C° 0 mm 1 m/s 731 mmHg 77%
    01:00 +14°C° 0 mm 1 m/s 731 mmHg 76%
    02:00 +14°C° 0 mm 1 m/s 730 mmHg 75%
    03:00 +14°C° 0 mm 1 m/s 730 mmHg 75%
    04:00 +13°C° 0 mm 1 m/s 730 mmHg 75%
    05:00 +13°C° 0 mm 1 m/s 730 mmHg 76%
    06:00 +14°C° 0 mm 1 m/s 730 mmHg 73%
    07:00 +15°C° 0 mm 1 m/s 731 mmHg 71%
    08:00 +16°C° 0 mm 1 m/s 731 mmHg 68%
    09:00 +19°C° 0 mm 1 m/s 731 mmHg 62%
    10:00 +20°C° 0 mm 1 m/s 732 mmHg 55%
    11:00 +22°C° 0 mm 1 m/s 732 mmHg 48%
    12:00 +23°C° 0 mm 1 m/s 731 mmHg 45%
    13:00 +24°C° 0 mm 1 m/s 731 mmHg 42%
    14:00 +25°C° 0 mm 1 m/s 731 mmHg 38%
    15:00 +25°C° 0 mm 1 m/s 730 mmHg 39%
    16:00 +25°C° 0 mm 1 m/s 730 mmHg 40%
    17:00 +25°C° 0 mm 1 m/s 729 mmHg 40%
    18:00 +24°C° 0 mm 1 m/s 730 mmHg 44%
    19:00 +22°C° 0 mm 1 m/s 730 mmHg 47%
    20:00 +20°C° 0 mm 1 m/s 730 mmHg 50%
    21:00 +20°C° 0 mm 1 m/s 730 mmHg 51%
    22:00 +20°C° 0 mm 1 m/s 730 mmHg 51%
    23:00 +19°C° 0 mm 1 m/s 730 mmHg 52%

    2 Março, Segunda-feira

    Tempo Temperatura Precipitação Vento Pressão Humidade
    00:00 +19°C° 0 mm 1 m/s 730 mmHg 53%
    01:00 +18°C° 0 mm 1 m/s 729 mmHg 54%
    02:00 +18°C° 0 mm 1 m/s 729 mmHg 55%
    03:00 +18°C° 0 mm 1 m/s 729 mmHg 55%
    04:00 +16°C° 0 mm 1 m/s 728 mmHg 55%
    05:00 +16°C° 0 mm 1 m/s 728 mmHg 54%
    06:00 +18°C° 0 mm 1 m/s 728 mmHg 54%
    07:00 +18°C° 0 mm 1 m/s 728 mmHg 53%
    08:00 +19°C° 0 mm 1 m/s 729 mmHg 53%
    09:00 +21°C° 0 mm 1 m/s 729 mmHg 47%
    10:00 +22°C° 0 mm 1 m/s 729 mmHg 40%
    11:00 +24°C° 0 mm 1 m/s 730 mmHg 34%
    12:00 +25°C° 0 mm 1 m/s 729 mmHg 33%
    13:00 +26°C° 0 mm 1 m/s 729 mmHg 31%
    14:00 +27°C° 0 mm 1 m/s 729 mmHg 29%
    15:00 +27°C° 0 mm 1 m/s 729 mmHg 30%
    16:00 +27°C° 0 mm 1 m/s 728 mmHg 32%
    17:00 +26°C° 0 mm 1 m/s 728 mmHg 33%
    18:00 +23°C° 0 mm 0 m/s 728 mmHg 37%
    19:00 +21°C° 0 mm 0 m/s 728 mmHg 41%
    20:00 +19°C° 0 mm 0 m/s 729 mmHg 45%
    21:00 +19°C° 0 mm 0 m/s 729 mmHg 47%
    22:00 +20°C° 0 mm 1 m/s 729 mmHg 48%
    23:00 +20°C° 0 mm 1 m/s 729 mmHg 49%

    3 Março, Terça-feira

    Tempo Temperatura Precipitação Vento Pressão Humidade
    00:00 +19°C° 0 mm 1 m/s 729 mmHg 50%
    01:00 +19°C° 0 mm 1 m/s 729 mmHg 51%
    02:00 +16°C° 0 mm 0 m/s 729 mmHg 52%
    03:00 +18°C° 0 mm 1 m/s 728 mmHg 52%
    04:00 +18°C° 0 mm 1 m/s 728 mmHg 52%
    05:00 +16°C° 0 mm 1 m/s 728 mmHg 52%
    06:00 +18°C° 0 mm 1 m/s 728 mmHg 51%
    07:00 +19°C° 0 mm 1 m/s 728 mmHg 50%
    08:00 +20°C° 0 mm 1 m/s 729 mmHg 49%
    09:00 +21°C° 0 mm 1 m/s 729 mmHg 43%
    10:00 +23°C° 0 mm 1 m/s 729 mmHg 37%
    11:00 +25°C° 0 mm 1 m/s 729 mmHg 31%
    12:00 +25°C° 0 mm 1 m/s 729 mmHg 29%
    13:00 +26°C° 0 mm 1 m/s 728 mmHg 27%
    14:00 +27°C° 0 mm 1 m/s 728 mmHg 25%
    15:00 +27°C° 0 mm 1 m/s 727 mmHg 27%
    16:00 +27°C° 0 mm 1 m/s 727 mmHg 28%
    17:00 +27°C° 0 mm 1 m/s 726 mmHg 30%
    18:00 +25°C° 0 mm 1 m/s 727 mmHg 34%
    19:00 +24°C° 0 mm 1 m/s 727 mmHg 38%
    20:00 +22°C° 0 mm 1 m/s 727 mmHg 42%
    21:00 +21°C° 0 mm 1 m/s 727 mmHg 43%
    22:00 +20°C° 0 mm 1 m/s 727 mmHg 45%
    23:00 +20°C° 0 mm 1 m/s 727 mmHg 46%
    Mostrar mais